User: anonymous   Login
Location: Calimesa Mobile Home Ranch
(33.9736°N, 117.0370°W)
Time: 04:42:34
(UTC+00:00)
Language:

Cosmos 1727 Rocket - Orbit

View from above orbital plane
View from above orbital plane
View from above satellite
View from above satellite

Ground track
Ground track

The orbit data is extracted from the following two-line orbital elements,

1 16511U 86008B   24194.85324477  .00000098  00000-0  86121-4 0  9995
2 16511  82.9441 104.5188 0022711 268.1091 160.1784 13.75892842931404
Epoch (UTC): 12 July 2024 20:28:40
Eccentricity: 0.0022711
inclination: 82.9441°
perigee height: 962 km
apogee height: 995 km
right ascension of ascending node: 104.5188°
argument of perigee: 268.1091°
revolutions per day: 13.75892842
mean anomaly at epoch: 160.1784°
orbit number at epoch: 93140

The dashed part of the orbit path shows where the satellite is in the earth's shadow,  

DLR